This demonstration page uses our WeatherBlox Daily Observations layout. Learn more.

Left ArrowRight Arrow

40.92945, -100.16068

Hourly Observations for November 11, 2018

Temp ( °F °C ) Dew Point ( °F °C ) Humidity (%) Winds ( mph kmh ) Pressure ( in mb ) Visibility ( mi km ) Precip ( " mm )
12:15 am 00:15 Clear 27 -2.9 24 -4.4 90 90 WNW 6 9 30.27 1025 10 16.0934 0 0
12:35 am 00:35 Clear 27 -3 24 -4.5 90 90 W 5 7 30.27 1025 10 16.0934 0 0
12:55 am 00:55 Clear 27 -2.6 24 -4.2 89 89 WNW 7 11 30.27 1025 10 16.0934 0 0
1:15 am 01:15 Clear 27 -2.6 24 -4.3 88 88 WNW 3 6 30.27 1025 10 16.0934 0 0
1:35 am 01:35 Clear 27 -2.7 24 -4.2 90 90 NW 6 9 30.3 1026 10 16.0934 0 0
1:55 am 01:55 Clear 28 -2.5 25 -4.1 89 89 NW 8 13 30.3 1026 10 16.0934 0 0
2:15 am 02:15 Partly Cloudy 28 -2.2 25 -3.8 89 89 NNW 10 17 30.3 1026 10 16.0934 0 0
2:35 am 02:35 Mostly Cloudy 29 -1.9 26 -3.5 89 89 NNW 7 11 30.3 1026 10 16.0934 0 0
2:55 am 02:55 Mostly Cloudy 29 -1.5 27 -3 90 90 NNW 7 11 30.3 1026 10 16.0934 0 0
3:15 am 03:15 Partly Cloudy 29 -1.7 26 -3.4 88 88 NNW 7 11 30.3 1026 10 16.0934 0 0
3:35 am 03:35 Clear 27 -2.6 25 -4.1 90 90 NW 7 11 30.3 1026 10 16.0934 0 0
3:55 am 03:55 Clear 27 -3 24 -4.5 90 90 NW 8 13 30.3 1026 10 16.0934 0 0
4:15 am 04:15 Clear 26 -3.2 24 -4.6 90 90 WNW 8 13 30.3 1026 10 16.0934 0 0
4:35 am 04:35 Clear 26 -3.3 23 -4.8 90 90 WNW 6 9 30.3 1026 10 16.0934 0 0
4:55 am 04:55 Clear 25 -4 22 -5.5 89 89 NW 6 9 30.33 1027 10 16.0934 0 0
5:15 am 05:15 Clear 24 -4.6 21 -6 90 90 NW 8 13 30.33 1027 10 16.0934 0 0
5:35 am 05:35 Clear 26 -3.6 23 -4.9 91 91 NNW 9 15 30.3 1026 10 16.0934 0 0
5:55 am 05:55 Clear 26 -3.5 23 -4.8 91 91 NNW 7 11 30.3 1026 10 16.0934 0 0
6:15 am 06:15 Clear 25 -4 22 -5.4 90 90 NW 6 9 30.33 1027 10 16.0934 0 0
6:35 am 06:35 Clear 24 -4.5 21 -5.9 90 90 NW 6 9 30.33 1027 10 16.0934 0 0
6:55 am 06:55 Clear 24 -4.6 21 -6 90 90 WNW 6 9 30.33 1027 10 16.0934 0 0
7:15 am 07:15 Partly Cloudy 24 -4.2 22 -5.4 91 91 NW 9 15 30.36 1028 10 16.0934 0 0
7:35 am 07:35 Partly Cloudy 26 -3.3 24 -4.6 91 91 NNW 9 15 30.33 1027 10 16.0934 0 0
7:55 am 07:55 Mostly Cloudy 28 -2.1 25 -3.7 89 89 N 8 13 30.33 1027 10 16.0934 0 0
8:15 am 08:15 Cloudy 30 -1 27 -3 86 86 N 8 13 30.33 1027 10 16.0934 0 0
8:35 am 08:35 Cloudy 32 -0.1 27 -2.8 82 82 N 9 15 30.33 1027 10 16.0934 0 0
8:55 am 08:55 Cloudy 32 0.2 28 -2.3 84 84 N 7 11 30.33 1027 10 16.0934 0 0
9:15 am 09:15 Cloudy 34 1 28 -2.4 78 78 N 10 17 30.33 1027 10 16.0934 0 0
9:35 am 09:35 Cloudy 34 1 28 -2.3 79 79 NNE 8 13 30.36 1028 10 16.0934 0 0
9:55 am 09:55 Cloudy 34 1.2 28 -2.1 79 79 NNE 7 11 30.36 1028 10 16.0934 0 0
10:15 am 10:15 Mostly Cloudy 35 1.6 28 -2 77 77 N 8 13 30.36 1028 10 16.0934 0 0
10:35 am 10:35 Mostly Cloudy 35 1.7 28 -2.2 76 76 NNE 8 13 30.36 1028 10 16.0934 0 0
10:55 am 10:55 Cloudy 35 1.8 28 -2.4 74 74 NNE 9 15 30.36 1028 10 16.0934 0 0
11:15 am 11:15 Cloudy 36 2.2 28 -2.5 71 71 NNE 12 19 30.36 1028 10 16.0934 0 0
11:35 am 11:35 Cloudy 36 2.4 27 -2.6 70 70 NNE 12 19 30.36 1028 10 16.0934 0 0
11:55 am 11:55 Cloudy 36 2.2 26 -3.1 68 68 NNE 8 13 30.36 1028 10 16.0934 0 0
12:15 pm 12:15 Cloudy 37 2.6 27 -2.9 67 67 N 8 13 30.36 1028 10 16.0934 0 0
12:35 pm 12:35 Cloudy 37 3 27 -3 65 65 N 6 9 30.3 1026 10 16.0934 0 0
12:55 pm 12:55 Cloudy 38 3.5 26 -3.4 61 61 NNW 9 15 30.3 1026 10 16.0934 0 0
1:15 pm 13:15 Cloudy 39 3.7 25 -3.7 59 59 NNW 14 22 30.3 1026 10 16.0934 0 0
1:35 pm 13:35 Cloudy 38 3.4 24 -4.2 58 58 NNW 10 17 30.3 1026 10 16.0934 0 0
1:55 pm 13:55 Mostly Cloudy 39 3.7 24 -4.4 56 56 NNW 8 13 30.3 1026 10 16.0934 0 0
2:15 pm 14:15 Cloudy 38 3.6 21 -6.2 49 49 NNW 12 19 30.3 1026 10 16.0934 0 0
2:35 pm 14:35 Cloudy 38 3.4 23 -5.1 54 54 N 10 17 30.3 1026 10 16.0934 0 0
2:55 pm 14:55 Cloudy 37 3 21 -5.9 52 52 N 12 19 30.3 1026 10 16.0934 0 0
3:15 pm 15:15 Cloudy 37 2.9 22 -5.8 53 53 N 10 17 30.3 1026 10 16.0934 0 0
3:35 pm 15:35 Cloudy 37 2.9 21 -5.9 53 53 N 10 17 30.36 1028 10 16.0934 0 0
3:55 pm 15:55 Cloudy 37 2.6 21 -5.9 54 54 N 10 17 30.36 1028 10 16.0934 0 0
4:15 pm 16:15 Cloudy 36 2.3 22 -5.5 57 57 N 10 17 30.36 1028 10 16.0934 0 0
4:35 pm 16:35 Cloudy 36 2.1 22 -5.5 58 58 N 7 11 30.36 1028 10 16.0934 0 0
4:55 pm 16:55 Cloudy 35 1.8 22 -5.3 60 60 NNE 7 11 30.36 1028 10 16.0934 0 0
5:15 pm 17:15 Cloudy 34 1.3 23 -5.1 63 63 NNE 5 7 30.36 1028 10 16.0934 0 0
5:35 pm 17:35 Mostly Cloudy 34 1 23 -5.2 64 64 NNE 5 7 30.36 1028 10 16.0934 0 0
5:55 pm 17:55 Mostly Cloudy 33 0.6 23 -5.2 65 65 NNE 5 7 30.36 1028 10 16.0934 0 0
6:15 pm 18:15 Cloudy 32 0 23 -5 69 69 N 3 6 30.42 1030 10 16.0934 0 0
6:35 pm 18:35 Cloudy 32 0 23 -5 69 69 NNE 3 6 30.42 1030 10 16.0934 0 0
6:55 pm 18:55 Partly Cloudy 32 -0.1 23 -5 70 70 Calm 30.42 1030 10 16.0934 0 0
7:15 pm 19:15 Clear 31 -0.5 23 -5.1 71 71 N 5 7 30.42 1030 10 16.0934 0 0
7:35 pm 19:35 Clear 29 -1.4 23 -5 77 77 N 5 7 30.45 1031 10 16.0934 0 0
7:55 pm 19:55 Clear 28 -2 22 -5.5 77 77 N 7 11 30.45 1031 10 16.0934 0 0
8:15 pm 20:15 Clear 28 -2 21 -6 74 74 NNE 7 11 30.45 1031 10 16.0934 0 0
8:35 pm 20:35 Clear 28 -2.2 21 -6.2 74 74 NNE 7 11 30.45 1031 10 16.0934 0 0
8:55 pm 20:55 Clear 28 -2.5 20 -6.5 74 74 NE 5 7 30.48 1032 10 16.0934 0 0
9:15 pm 21:15 Clear 27 -3 20 -6.6 76 76 NNE 5 7 30.5 1033 10 16.0934 0 0
9:35 pm 21:35 Clear 24 -4.2 20 -6.6 84 84 N 3 6 30.5 1033 10 16.0934 0 0
9:55 pm 21:55 Clear 25 -4.1 20 -6.5 84 84 NNW 6 9 30.5 1033 10 16.0934 0 0
10:15 pm 22:15 Clear 25 -3.7 21 -6.1 84 84 NNW 7 11 30.5 1033 10 16.0934 0 0
10:35 pm 22:35 Clear 26 -3.2 21 -5.9 82 82 NNW 3 6 30.53 1034 10 16.0934 0 0
10:55 pm 22:55 Clear 26 -3.3 21 -6 82 82 NW 6 9 30.53 1034 10 16.0934 0 0
11:15 pm 23:15 Clear 26 -3.3 21 -6 82 82 NW 6 9 30.53 1034 10 16.0934 0 0
11:35 pm 23:35 Partly Cloudy 26 -3.3 21 -6 82 82 NNW 5 7 30.53 1034 10 16.0934 0 0
11:55 pm 23:55 Partly Cloudy 26 -3.2 22 -5.8 82 82 N 5 7 30.53 1034 10 16.0934 0 0

Powered by AerisWeather